Newport, RI

9:26 PM EST on December 06, 2019 (GMT -0500)
Newport State

Weather History for KUUU - November, 2019

Change the Weather History Date:

Tuesday, November 12, 2019

  Actual Average Record
Temperature  
Mean Temperature 43 °F -  
Max Temperature 59 °F 52 °F 64 °F (1984)
Min Temperature 25 °F 38 °F 27 °F (2001)
Degree Days  
Heating Degree Days 22    
Moisture  
Dew Point 36 °F    
Average Humidity 76    
Maximum Humidity 96    
Minimum Humidity 38    
Precipitation  
Precipitation 0.08 in - - ()
Sea Level Pressure  
Sea Level Pressure 29.81 in    
Wind  
Wind Speed 9 mph ()    
Max Wind Speed 25 mph    
Max Gust Speed 36 mph    
Visibility 7.2 miles    
Events Fog , Rain , Snow    
Averages and records for this station are not official NWS values.
T = Trace of Precipitation, MM = Missing Value Source: Averaged Metar Reports

Daily Weather History Graph

Daily Weather History Graph

Search for Another Location

Airport or City:

Astronomy

Nov. 12, 2019 Rise Set
Actual Time 6:29 AM EST 4:28 PM EST
Civil Twilight 6:00 AM EST 4:57 PM EST
Nautical Twilight 5:27 AM EST 5:30 PM EST
Astronomical Twilight 4:54 AM EST 6:03 PM EST
Moon 4:53 PM EST (11/12) 6:17 AM EST (11/12)
Length of Visible Light 10h 57m
Length of Day
9h 58m
Full, 100% of the Moon is Illuminated
Nov 12
Full
Nov 19
Last Quarter
Nov 26
New
Dec 4
First Quarter
Dec 12
Full

Hourly Weather History & Observations

Time (EST) Temp. Windchill Dew Point Humidity Pressure Visibility Wind Dir Wind Speed Gust Speed Precip Events Conditions
12:15 AM 48.0 °F - 46.0 °F 93% 29.86 in 0.2 mi NNE 3.5 mph - N/A Fog Fog
12:27 AM 46.9 °F - 45.0 °F 93% 29.85 in 0.5 mi Calm Calm - N/A Fog Fog
12:42 AM 46.9 °F - 45.0 °F 93% 29.85 in 0.2 mi NW 4.6 mph - N/A Fog Fog
12:53 AM 46.9 °F - 45.0 °F 93% 29.84 in 0.2 mi Calm Calm - N/A Fog Fog
1:08 AM 46.9 °F - 45.0 °F 93% 29.83 in 0.2 mi Calm Calm - N/A Fog Fog
1:18 AM 46.0 °F 44.8 °F 45.0 °F 96% 29.82 in 1.0 mi NNE 3.5 mph - N/A   Mist
1:34 AM 46.0 °F 44.8 °F 44.1 °F 93% 29.81 in 3.0 mi SSE 3.5 mph - N/A   Partly Cloudy
1:53 AM 51.1 °F - 48.0 °F 89% 29.81 in 9.0 mi South 4.6 mph - N/A   Clear
2:53 AM 55.9 °F - 51.1 °F 84% 29.75 in 10.0 mi South 6.9 mph - N/A   Clear
3:53 AM 59.0 °F - 52.0 °F 78% 29.74 in 10.0 mi SSW 9.2 mph - N/A   Clear
4:53 AM 59.0 °F - 51.1 °F 75% 29.71 in 10.0 mi SSW 12.7 mph 24.2 mph N/A   Clear
5:53 AM 59.0 °F - 51.1 °F 75% 29.70 in 10.0 mi SSW 10.4 mph - N/A   Clear
6:53 AM 59.0 °F - 51.1 °F 75% 29.69 in 9.0 mi South 15.0 mph 23.0 mph N/A   Clear
7:53 AM 59.0 °F - 51.1 °F 75% 29.68 in 8.0 mi SSW 9.2 mph 17.3 mph N/A   Clear
8:53 AM 59.0 °F - 48.9 °F 69% 29.68 in 10.0 mi SW 8.1 mph 17.3 mph N/A   Clear
9:53 AM 59.0 °F - 48.0 °F 67% 29.69 in 10.0 mi SSW 9.2 mph 18.4 mph N/A   Scattered Clouds
10:53 AM 57.9 °F - 46.0 °F 65% 29.68 in 10.0 mi WSW 8.1 mph - 0.00 in   Overcast
11:31 AM 55.9 °F - 46.0 °F 69% 29.68 in 10.0 mi WNW 15.0 mph 20.7 mph N/A   Overcast
11:53 AM 51.1 °F - 43.0 °F 74% 29.70 in 10.0 mi WNW 10.4 mph 19.6 mph 0.00 in Rain Light Rain
12:30 PM 46.9 °F - 41.0 °F 80% 29.73 in 10.0 mi WNW 11.5 mph 20.7 mph 0.01 in Rain Light Rain
12:53 PM 44.1 °F 37.7 °F 37.9 °F 79% 29.73 in 9.0 mi WNW 12.7 mph 24.2 mph 0.02 in Rain Light Rain
1:10 PM 42.1 °F 33.1 °F 36.0 °F 79% 29.75 in 9.0 mi NW 20.7 mph 28.8 mph 0.01 in Rain Light Rain
1:31 PM 41.0 °F 32.2 °F 36.0 °F 82% 29.76 in 8.0 mi NW 18.4 mph 25.3 mph 0.02 in Rain Light Rain
1:53 PM 41.0 °F 34.3 °F 35.1 °F 79% 29.76 in 8.0 mi NW 11.5 mph 24.2 mph 0.03 in Rain Light Rain
2:00 PM 39.9 °F 32.1 °F 35.1 °F 83% 29.76 in 8.0 mi NW 13.8 mph - 0.00 in Rain Light Rain
2:14 PM 39.0 °F 30.3 °F 35.1 °F 86% 29.78 in 8.0 mi WNW 16.1 mph 21.9 mph 0.01 in Rain Light Rain
2:26 PM 37.9 °F 29.2 °F 34.0 °F 86% 29.78 in 7.0 mi WNW 15.0 mph 23.0 mph 0.02 in Rain Light Rain
2:33 PM 37.0 °F 28.1 °F 33.1 °F 86% 29.79 in 8.0 mi WNW 15.0 mph 23.0 mph 0.02 in Rain Light Rain
2:53 PM 36.0 °F 25.3 °F 32.0 °F 86% 29.80 in 5.0 mi WNW 19.6 mph 27.6 mph 0.03 in Snow Light Snow
3:37 PM 35.1 °F 24.8 °F 30.9 °F 85% 29.82 in 6.0 mi NW 17.3 mph - 0.00 in Snow Light Snow
3:53 PM 35.1 °F 23.3 °F 28.9 °F 78% 29.83 in 8.0 mi NW 23.0 mph 32.2 mph 0.00 in Snow Light Snow
4:24 PM 33.1 °F 23.0 °F 28.0 °F 82% 29.85 in 2.0 mi NW 15.0 mph 28.8 mph 0.00 in Snow Light Snow
4:36 PM 33.1 °F 22.6 °F 27.0 °F 78% 29.86 in 3.0 mi NW 16.1 mph 27.6 mph 0.00 in Snow Light Snow
4:53 PM 32.0 °F 20.8 °F 26.1 °F 79% 29.87 in 4.0 mi NW 17.3 mph 26.5 mph 0.00 in Snow Light Snow
5:25 PM 32.0 °F 20.5 °F 24.1 °F 73% 29.89 in 10.0 mi NW 18.4 mph 27.6 mph 0.00 in   Overcast
5:53 PM 32.0 °F 20.8 °F 21.9 °F 66% 29.91 in 10.0 mi NW 17.3 mph 27.6 mph 0.00 in   Overcast
6:53 PM 32.0 °F 21.2 °F 19.0 °F 59% 29.93 in 10.0 mi NW 16.1 mph 28.8 mph N/A   Overcast
7:53 PM 30.9 °F 18.4 °F 14.0 °F 50% 29.96 in 10.0 mi NW 20.7 mph 33.4 mph N/A   Clear
8:53 PM 30.0 °F 16.0 °F 7.0 °F 38% 29.97 in 10.0 mi NW 25.3 mph 35.7 mph N/A   Clear
9:53 PM 28.9 °F 15.8 °F 9.0 °F 43% 29.99 in 10.0 mi WNW 20.7 mph 32.2 mph N/A   Clear
10:53 PM 27.0 °F 13.5 °F 7.0 °F 43% 30.01 in 10.0 mi NW 19.6 mph 29.9 mph N/A   Clear
11:53 PM 25.0 °F 9.9 °F 5.0 °F 43% 30.02 in 10.0 mi NW 23.0 mph 32.2 mph N/A   Clear